TimeCST,TemperatureF,Dew PointF,Humidity,Sea Level PressureIn,VisibilityMPH,Wind Direction,Wind SpeedMPH,Gust SpeedMPH,PrecipitationIn,Events,Conditions,WindDirDegrees,DateUTC
12:53 AM,46.0,32.0,58,30.53,10.0,North,4.6,-,N/A,,Clear,10,2013-12-12 06:53:00
1:53 AM,45.0,30.9,58,30.53,10.0,North,8.1,-,N/A,,Clear,10,2013-12-12 07:53:00
2:53 AM,44.1,30.0,58,30.53,10.0,NNE,6.9,-,N/A,,Clear,20,2013-12-12 08:53:00
3:53 AM,43.0,28.9,58,30.52,10.0,NNE,9.2,-,N/A,,Clear,20,2013-12-12 09:53:00
4:53 AM,42.1,28.9,60,30.53,10.0,NNE,5.8,-,N/A,,Clear,20,2013-12-12 10:53:00
5:53 AM,41.0,28.9,62,30.54,10.0,NNE,6.9,-,N/A,,Clear,20,2013-12-12 11:53:00
6:53 AM,41.0,28.9,62,30.56,9.0,North,6.9,-,N/A,,Clear,10,2013-12-12 12:53:00
7:53 AM,41.0,28.9,62,30.57,7.0,North,5.8,-,N/A,,Clear,10,2013-12-12 13:53:00
8:53 AM,43.0,30.0,60,30.56,7.0,NNE,9.2,-,N/A,,Clear,30,2013-12-12 14:53:00
9:53 AM,46.0,30.9,56,30.60,8.0,NNE,5.8,-,N/A,,Clear,30,2013-12-12 15:53:00
10:53 AM,50.0,32.0,50,30.57,9.0,NNE,8.1,-,N/A,,Clear,20,2013-12-12 16:53:00
11:53 AM,53.1,32.0,45,30.54,10.0,East,6.9,-,N/A,,Clear,80,2013-12-12 17:53:00
12:53 PM,54.0,32.0,43,30.48,10.0,Variable,3.5,-,N/A,,Clear,0,2013-12-12 18:53:00
1:53 PM,55.0,32.0,42,30.44,10.0,NE,4.6,-,N/A,,Mostly Cloudy,40,2013-12-12 19:53:00
2:53 PM,54.0,32.0,43,30.43,10.0,East,5.8,-,N/A,,Overcast,80,2013-12-12 20:53:00
3:53 PM,54.0,32.0,43,30.42,10.0,East,4.6,-,N/A,,Partly Cloudy,80,2013-12-12 21:53:00
4:53 PM,53.1,32.0,45,30.40,10.0,ENE,3.5,-,N/A,,Clear,60,2013-12-12 22:53:00
5:53 PM,52.0,33.1,49,30.39,10.0,East,4.6,-,N/A,,Mostly Cloudy,80,2013-12-12 23:53:00
6:53 PM,50.0,33.1,52,30.40,10.0,East,5.8,-,N/A,,Clear,100,2013-12-13 00:53:00
7:53 PM,51.1,34.0,52,30.41,10.0,Calm,Calm,-,N/A,,Overcast,0,2013-12-13 01:53:00
8:53 PM,50.0,33.1,52,30.39,10.0,East,5.8,-,N/A,,Overcast,100,2013-12-13 02:53:00
9:53 PM,50.0,35.1,57,30.38,10.0,ESE,3.5,-,N/A,,Overcast,120,2013-12-13 03:53:00
10:53 PM,50.0,35.1,57,30.37,10.0,SE,3.5,-,N/A,,Overcast,140,2013-12-13 04:53:00
11:53 PM,48.9,34.0,56,30.32,10.0,SE,5.8,-,N/A,,Mostly Cloudy,130,2013-12-13 05:53:00